Weather History for Racine, WI

Change the Weather History Date:

Wednesday, January 23, 2013

  Actual Average Record
Temperature  
Mean Temperature 10 °F -  
Max Temperature 18 °F 33 °F 53 °F (1967)
Min Temperature 3 °F 16 °F -23 °F (1963)
Degree Days  
Heating Degree Days 54    
Moisture  
Dew Point 5 °F    
Average Humidity 71    
Maximum Humidity 85    
Minimum Humidity 56    
Precipitation  
Precipitation 0.00 in - - ()
Sea Level Pressure  
Sea Level Pressure 30.22 in    
Wind  
Wind Speed 9 mph (West)    
Max Wind Speed 18 mph    
Max Gust Speed 28 mph    
Visibility 7 miles    
Events Snow    
Averages and records for this station are not official NWS values.
T = Trace of Precipitation, MM = Missing Value Source: NWS Daily Summary

Daily Weather History Graph

Daily Weather History Graph

Search for Another Location

Airport:

Trip Planner

Search our weather history database for the weather conditions in past years. The results will help you decide how hot, cold, wet, or windy it might be!

Date:

Astronomy

Jan. 23, 2013 Rise Set
Actual Time 7:13 AM CST 4:53 PM CST
Civil Twilight 6:43 AM CST 5:23 PM CST
Nautical Twilight 6:08 AM CST 5:58 PM CST
Astronomical Twilight 5:35 AM CST 6:31 PM CST
Moon 2:02 PM CST (1/23) 4:26 AM CST (1/23)
Length of Visible Light 10h 40m
Length of Day
9h 39m
Waxing Gibbous, 89% of the Moon is Illuminated
Jan 23
Waxing Gibbous
Jan 26
Full
Feb 3
Last Quarter
Feb 10
New
Feb 17
First Quarter

Hourly Weather History & Observations

Time (CST) Temp. Windchill Dew Point Humidity Pressure Visibility Wind Dir Wind Speed Gust Speed Precip Events Conditions
12:53 AM 3.9 °F -5.3 °F -5.1 °F 66% 30.35 in 10.0 mi West 4.6 mph - N/A   Clear
1:53 AM 5.0 °F -2.1 °F -4.0 °F 66% 30.35 in 10.0 mi WSW 3.5 mph - N/A   Overcast
2:53 AM 6.1 °F -2.8 °F -4.0 °F 63% 30.34 in 10.0 mi West 4.6 mph - N/A   Overcast
3:53 AM 7.0 °F -3.3 °F -4.0 °F 61% 30.32 in 10.0 mi WSW 5.8 mph - N/A   Overcast
4:53 AM 8.1 °F -2.0 °F -2.0 °F 64% 30.31 in 10.0 mi WSW 5.8 mph - N/A   Overcast
5:53 AM 9.0 °F -2.2 °F -2.0 °F 61% 30.30 in 10.0 mi SW 6.9 mph - N/A   Overcast
6:53 AM 10.0 °F -0.9 °F -2.9 °F 56% 30.28 in 10.0 mi WSW 6.9 mph - N/A   Overcast
7:53 AM 10.0 °F -1.9 °F -2.9 °F 56% 30.27 in 10.0 mi WSW 8.1 mph - N/A   Overcast
8:53 AM 10.9 °F -0.8 °F -0.0 °F 61% 30.27 in 10.0 mi West 8.1 mph - N/A   Overcast
9:53 AM 12.0 °F -2.7 °F 1.9 °F 64% 30.27 in 10.0 mi West 12.7 mph - N/A   Overcast
10:53 AM 14.0 °F 2.0 °F 3.9 °F 64% 30.26 in 10.0 mi WSW 9.2 mph - 0.00 in   Overcast
11:53 AM 15.1 °F 2.5 °F 5.0 °F 64% 30.22 in 6.0 mi WSW 10.4 mph - 0.00 in   Haze
12:14 PM 15.8 °F 1.4 °F 6.8 °F 68% 30.15 in 6.0 mi WSW 13.8 mph 18.4 mph N/A   Haze
12:29 PM 15.8 °F 0.9 °F 6.8 °F 68% 30.14 in 7.0 mi SW 15.0 mph - N/A   Overcast
12:53 PM 16.0 °F 3.6 °F 6.1 °F 65% 30.17 in 9.0 mi WSW 10.4 mph - N/A   Overcast
1:39 PM 17.6 °F 3.7 °F 6.8 °F 63% 30.10 in 8.0 mi SW 13.8 mph - 0.00 in   Overcast
1:53 PM 17.1 °F 5.0 °F 8.1 °F 68% 30.14 in 7.0 mi WSW 10.4 mph - 0.00 in   Overcast
2:35 PM 17.6 °F 4.3 °F 8.6 °F 68% 30.08 in 10.0 mi WSW 12.7 mph 18.4 mph 0.00 in   Overcast
2:44 PM 17.6 °F 5.7 °F 8.6 °F 68% 30.08 in 10.0 mi SW 10.4 mph - 0.00 in   Overcast
2:53 PM 18.0 °F 4.2 °F 9.0 °F 68% 30.12 in 10.0 mi SW 13.8 mph - 0.00 in   Overcast
3:53 PM 18.0 °F 6.1 °F 10.0 °F 71% 30.13 in 4.0 mi West 10.4 mph - 0.00 in Snow Light Snow
4:49 PM 17.6 °F 6.4 °F 12.2 °F 79% 30.10 in 2.0 mi West 9.2 mph 17.3 mph 0.00 in Snow Light Snow
4:53 PM 17.1 °F 5.0 °F 12.0 °F 81% 30.14 in 1.8 mi West 10.4 mph - 0.00 in Snow Light Snow
5:03 PM 17.6 °F 9.3 °F 12.2 °F 79% 30.10 in 2.5 mi West 5.8 mph - 0.00 in Snow Light Snow
5:06 PM 17.6 °F 7.3 °F 12.2 °F 79% 30.10 in 3.0 mi West 8.1 mph - 0.00 in Snow Light Snow
5:53 PM 16.0 °F 8.8 °F 12.0 °F 84% 30.16 in 9.0 mi West 4.6 mph - 0.00 in   Overcast
6:53 PM 15.1 °F 5.2 °F 10.9 °F 84% 30.18 in 6.0 mi WNW 6.9 mph - N/A   Mostly Cloudy
7:03 PM 15.8 °F 5.1 °F 10.4 °F 79% 30.14 in 7.0 mi WNW 8.1 mph - N/A   Scattered Clouds
7:37 PM 15.8 °F 2.7 °F 10.4 °F 79% 30.16 in 2.5 mi NW 11.5 mph 20.7 mph 0.00 in Snow Light Snow
7:44 PM 15.8 °F 2.1 °F 10.4 °F 79% 30.17 in 1.8 mi NNW 12.7 mph - 0.00 in Snow Light Snow
7:48 PM 15.8 °F 1.4 °F 10.4 °F 79% 30.17 in 3.0 mi NW 13.8 mph 23.0 mph 0.00 in Snow Light Snow
7:53 PM 16.0 °F 0.6 °F 10.0 °F 77% 30.22 in 4.0 mi NW 16.1 mph 24.2 mph 0.00 in Snow Light Snow
8:53 PM 14.0 °F -2.0 °F 3.9 °F 64% 30.25 in 10.0 mi NNW 16.1 mph 25.3 mph 0.00 in   Partly Cloudy
9:03 PM 12.2 °F -1.8 °F 6.8 °F 79% 30.22 in 2.5 mi NNW 11.5 mph 25.3 mph 0.00 in Snow Light Snow
9:09 PM 12.2 °F -2.5 °F 6.8 °F 79% 30.23 in 3.0 mi NNW 12.7 mph 25.3 mph 0.00 in Snow Light Snow
9:53 PM 12.0 °F -5.6 °F 3.9 °F 70% 30.30 in 6.0 mi NW 18.4 mph 27.6 mph 0.00 in Snow Light Snow
9:59 PM 10.4 °F -7.7 °F 6.8 °F 85% 30.26 in 1.8 mi NNW 18.4 mph 27.6 mph 0.00 in Snow Light Snow
10:09 PM 10.4 °F -7.2 °F 5.0 °F 79% 30.26 in 3.0 mi NNW 17.3 mph 25.3 mph 0.00 in Snow Light Snow
10:37 PM 10.4 °F -6.6 °F 3.2 °F 73% 30.29 in 10.0 mi NNW 16.1 mph 24.2 mph 0.00 in   Scattered Clouds
10:53 PM 10.0 °F -3.7 °F 3.0 °F 73% 30.34 in 10.0 mi NNW 10.4 mph 21.9 mph 0.00 in   Clear
11:53 PM 8.1 °F -9.0 °F -2.9 °F 61% 30.39 in 10.0 mi NNW 15.0 mph 25.3 mph N/A   Clear